Kirksville, MO

1:34 AM CDT on March 25, 2017 (GMT -0500)
Kirksville Regional

Weather History for KIRK - July, 2012

Change the Weather History Date:

Tuesday, July 10, 2012

  Actual Average Record
Temperature  
Mean Temperature 80 °F 75 °F  
Max Temperature 93 °F 85 °F 103 °F (1936)
Min Temperature 66 °F 65 °F 51 °F (1956)
Degree Days  
Heating Degree Days 0 0  
Month to date heating degree days 0 0  
Since 1 June heating degree days 10 16  
Since 1 July heating degree days 0 0  
Cooling Degree Days 15 10  
Month to date cooling degree days 184 94  
Year to date cooling degree days 596 348  
Since 1 June cooling degree days 452 286  
Growing Degree Days 28 (Base 50)    
Moisture  
Dew Point 61 °F    
Average Humidity 57    
Maximum Humidity 81    
Minimum Humidity 32    
Precipitation  
Precipitation 0.00 in 0.15 in 2.60 in (1928)
Month to date precipitation 0.04 1.33  
Year to date precipitation 14.39 20.26  
Sea Level Pressure  
Sea Level Pressure 30.05 in    
Wind  
Wind Speed 7 mph (NNE)    
Max Wind Speed 14 mph    
Max Gust Speed 18 mph    
Visibility 10 miles    
Events      
T = Trace of Precipitation, MM = Missing Value Source: NWS Daily Summary

Daily Weather History Graph

Daily Weather History Graph

Search for Another Location

Airport or City:

Trip Planner

Search our weather history database for the weather conditions in past years. The results will help you decide how hot, cold, wet, or windy it might be!

Date:

Astronomy

Jul. 10, 2012 Rise Set
Actual Time 5:50 AM CDT 8:40 PM CDT
Civil Twilight 5:18 AM CDT 9:12 PM CDT
Nautical Twilight 4:37 AM CDT 9:53 PM CDT
Astronomical Twilight 3:50 AM CDT 10:39 PM CDT
Moon No Moon Rise 1:17 PM CDT (7/10)
Length of Visible Light 15h 54m
Length of Day
14h 50m
Waning Gibbous, 54% of the Moon is Illuminated
Jul 10
Waning Gibbous
Jul 10
Last Quarter
Jul 18
New
Jul 26
First Quarter
Aug 1
Full

Hourly Weather History & Observations

Time (CDT) Temp. Heat Index Dew Point Humidity Pressure Visibility Wind Dir Wind Speed Gust Speed Precip Events Conditions
12:55 AM 68.0 °F - 62.1 °F 81% 30.06 in 10.0 mi North 5.8 mph - N/A   Clear
1:55 AM 70.0 °F - 62.1 °F 76% 30.05 in 10.0 mi North 4.6 mph - N/A   Clear
2:55 AM 69.1 °F - 62.1 °F 78% 30.05 in 10.0 mi North 3.5 mph - N/A   Clear
3:55 AM 69.1 °F - 63.0 °F 81% 30.05 in 10.0 mi North 5.8 mph - N/A   Clear
4:55 AM 69.1 °F - 62.1 °F 78% 30.05 in 10.0 mi North 6.9 mph - N/A   Scattered Clouds
5:55 AM 66.0 °F - 61.0 °F 84% 30.06 in 10.0 mi North 4.6 mph - N/A   Clear
6:55 AM 68.0 °F - 61.0 °F 78% 30.07 in 10.0 mi North 3.5 mph - N/A   Clear
7:55 AM 72.0 °F - 61.0 °F 68% 30.08 in 10.0 mi NNE 6.9 mph - N/A   Scattered Clouds
8:55 AM 77.0 °F - 62.1 °F 60% 30.08 in 10.0 mi North 4.6 mph - N/A   Partly Cloudy
9:55 AM 81.0 °F 82.2 °F 63.0 °F 54% 30.08 in 10.0 mi NNW 6.9 mph - N/A   Clear
10:55 AM 86.0 °F 85.4 °F 59.0 °F 40% 30.07 in 10.0 mi North 8.1 mph - N/A   Clear
11:55 AM 90.0 °F 89.7 °F 60.1 °F 37% 30.06 in 10.0 mi North 8.1 mph - N/A   Partly Cloudy
12:55 PM 89.1 °F 88.8 °F 60.1 °F 38% 30.06 in 10.0 mi NNE 6.9 mph - N/A   Mostly Cloudy
1:55 PM 89.1 °F 88.2 °F 59.0 °F 36% 30.04 in 10.0 mi East 3.5 mph - N/A   Mostly Cloudy
2:55 PM 91.0 °F 90.2 °F 59.0 °F 34% 30.03 in 10.0 mi Variable 6.9 mph - N/A   Scattered Clouds
3:55 PM 88.0 °F 86.9 °F 57.9 °F 36% 30.02 in 10.0 mi NE 5.8 mph - N/A   Partly Cloudy
4:55 PM 91.0 °F 89.7 °F 57.0 °F 32% 30.01 in 10.0 mi North 5.8 mph - N/A   Clear
5:55 PM 88.0 °F 86.9 °F 57.9 °F 36% 30.00 in 10.0 mi NNE 5.8 mph - N/A   Clear
6:55 PM 84.0 °F 84.9 °F 63.0 °F 49% 30.01 in 10.0 mi ENE 11.5 mph 18.4 mph N/A   Partly Cloudy
7:55 PM 82.0 °F 83.1 °F 63.0 °F 52% 30.02 in 10.0 mi ENE 10.4 mph 16.1 mph N/A   Clear
8:55 PM 80.1 °F 81.5 °F 63.0 °F 56% 30.03 in 10.0 mi ENE 9.2 mph - N/A   Clear
9:55 PM 77.0 °F - 63.0 °F 62% 30.05 in 10.0 mi NE 9.2 mph - N/A   Clear
10:55 PM 73.9 °F - 60.1 °F 62% 30.06 in 10.0 mi NE 9.2 mph - N/A   Clear
11:55 PM 72.0 °F - 59.0 °F 64% 30.07 in 10.0 mi ENE 6.9 mph - N/A   Clear